星链-3567 (STARLINK-3567 )

导读 | 星芒AI

STARLINK-3567 是 SpaceX Starlink 项目中的一颗低轨通信卫星,属于该星座的众多卫星之一,旨在为全球用户提供高速互联网服务。该卫星采用现代化设计,配备先进推进系统和激光通信设备,以提高数据传输效率和轨道机动能力。它运行在约 550 公里的近地轨道上,与其他 Starlink 卫星协同工作,构建全球覆盖的宽带网络。STARLINK-3567 的发射和运行有助于提升偏远地区的网络接入能力,并推动全球互联网服务的普及。

基本信息
目录编号:
51871
目录名称:
STARLINK-3567
国际标识:
2022-022V
轨道中心:
EARTH
卫星名称:
星链-3567
卫星全名:
星链-3567 (STARLINK-3567 )
卫星状态:
在轨 (已飞行1388 天)
发射日期:
2022-03-03 UTC
国别 :
美国 (US)
星等 :
--
轨道信息
数据来源 国际轨道数据
星历时间: 2025-12-19T19:08:03+0800
1天前
查看轨道信息
半长轴: 6917.805km
偏心率: 0.0001233
轨道倾角: 53.217°
近地点辐角 86.621°
升交点赤经 9.268°
平近点角 273.493°
近地点: 538.815km
远地点: 540.521km
周期: 95.436分钟
每日圈数: 15.088648
详细信息
固有亮度:
5
最大亮度:
2.5
卫星平台:
Starlink v1.5
覆盖范围:
全球
运营商:
太空探索技术公司
运营商所在国:
美国
制造商(研发单位):
太空探索技术公司
制造商所在国:
美国
使用方式:
暂无
卫星简介
星链(Starlink)计划是由太空探索技术公司(SpaceX)提出的一个巨型低轨卫星互联网星座项目,计划在2019年至2024年间在太空搭建由约1.2万颗卫星组成的“星链”网络,其中1584颗将部署在地球上空550千米处的近地轨道,并从2020年开始工作。该卫星仍在工作。
2D轨道图
3D轨道图
轨道高度分析图
轨道倾角分析图
轨道综合分析图
查看轨道综合分析图